Regional Weather Roundup
Issued by NWS

Home | Current Version | Previous Version | Graphics & Text | Print | Product List | Glossary On
Versions: 1 2 3 4 5 6 7 8 9 10 11 12 13 14 15 16 17 18 19 20 21 22 23 24 25 26 27 28 29 30 31 32 33 34 35 36 37 38 39 40 41 42 43 44 45 46 47 48 49 50
459
ASUS43 KDMX 241708
RWRIA

WEATHER ROUNDUP FOR IOWA
NATIONAL WEATHER SERVICE DES MOINES IA
1200 PM CDT WED AUG 24 2016

NOTE: "FAIR" INDICATES FEW OR NO CLOUDS BELOW 12,000 FEET WITH NO
SIGNIFICANT WEATHER AND/OR OBSTRUCTIONS TO VISIBILITY.

* - THESE STATIONS ARE NOT NWS STATIONS...THUS NOT UNDER NWS
QUALITY CONTROL.  THEY ALSO DO NOT REPORT WEATHER SUCH
AS PRECIPITATION OR FOG.

IAZ001>003-012>014-020>022-031>034-043>046-241800-
   NORTHWEST IOWA

CITY           SKY/WX    TMP DP  RH WIND       PRES   REMARKS
CARROLL *      MOSUNNY   81  70  69 NW10      29.98R HX  84
CHEROKEE *     CLOUDY    76  61  58 NW7       30.00S
DENISON *      PTSUNNY   77  63  61 N9        29.98R
LE MARS *      CLOUDY    75  59  57 N6        30.04R
ORANGE CITY *  CLOUDY    73  61  64 NW6       30.03R
SHELDON *      CLOUDY    75  63  64 NW8       30.01R
SIOUX CITY     CLOUDY    74  62  66 NW7       30.02R
SPENCER        PTSUNNY   76  56  49 N14       29.99S
STORM LAKE *   CLOUDY    75  59  57 N12       30.00S
$$

IAZ055>058-069>071-079>083-090>094-241800-
   SOUTHWEST IOWA

CITY           SKY/WX    TMP DP  RH WIND       PRES   REMARKS
ATLANTIC *     CLOUDY    75  70  83 CALM      30.00R
AUDUBON *      MOSUNNY   79  72  78 N9        30.00S HX  82
CLARINDA *       N/A     77  68  73 MISG      30.03S
COUNCIL BLFS * SUNNY     77  68  73 NE8       30.01R
CRESTON *      CLOUDY    77  68  73 SW9       30.02S
HARLAN  *      PTSUNNY   77  70  78 N8        30.03R
LAMONI         MOSUNNY   79  72  79 SW12      30.01S HX  82
RED OAK *      CLOUDY    75  70  83 CALM      30.01R
SHENANDOAH *   CLOUDY    77 -33   1 CALM      30.00F
$$

IAZ047>049-059>061-072>074-084-241800-
   CENTRAL IOWA

CITY           SKY/WX    TMP DP  RH WIND       PRES   REMARKS
AMES           CLOUDY    76  72  87 W7        29.95R
ANKENY *         N/A    N/A N/A N/A MISG        N/A
BOONE *        CLOUDY    73  70  88 NW8       29.95S
CHARITON *       N/A     79  68  69 MISG      29.99S HX  81
DES MOINES     MOSUNNY   82  70  66 W13       29.97R HX  86
GRINNELL*      SUNNY     80  68  67 SW13      29.96R HX  83
KNOXVILLE *    SUNNY     79  68  69 SW10      29.97S HX  81
MARSHALLTOWN   MOSUNNY   79  71  76 W10       29.93S HX  82
NEWTON *       SUNNY     81  72  74 SW12      29.95R HX  84
PERRY *        CLOUDY    75  73  92 CALM      29.98R
$$

IAZ004>006-015-016-023>025-035-036-241800-
   NORTH CENTRAL IOWA

CITY           SKY/WX    TMP DP  RH WIND       PRES   REMARKS
ALGONA *       PTSUNNY   75  68  78 NW10      29.97R
ESTHERVILLE    MOSUNNY   75  62  64 N15       29.98R
FORT DODGE *   CLOUDY    77  70  78 NW6       29.97R
MASON CITY     CLOUDY    74  70  87 N10       29.96R
FOREST CITY *    N/A    N/A N/A N/A MISG        N/A
WEBSTER CITY * CLOUDY    75  72  88 NW9       29.94S
IOWA FALLS *   CLOUDY    76  70  82 W7        29.96R
$$

IAZ007>011-017>019-026>030-037>042-050>054-066-241800-
   NORTHEAST IOWA

CITY           SKY/WX    TMP DP  RH WIND       PRES   REMARKS
CEDAR RAPIDS   SUNNY     81  73  76 SW10      29.94R HX  86
CHARLES CITY * CLOUDY    77  73  88 W8        29.94R
CLINTON *      LGT RAIN  77  74  90 NW3       29.95R
DECORAH *      CLOUDY    77  73  88 VRB5      29.90R
DUBUQUE        PTSUNNY   78  73  84 SW9       29.94R HX  81
MONTICELLO *   SUNNY     81  72  74 VRB5      29.94R HX  84
OELWEIN *      PTSUNNY   81  73  78 SW10      29.94R HX  85
WATERLOO       PTSUNNY   80  69  69 W10       29.92R HX  83
$$

IAZ064-065-067-068-078-241800-
   EAST CENTRAL IOWA

CITY           SKY/WX    TMP DP  RH WIND       PRES   REMARKS
DAVENPORT      MOSUNNY   80  71  74 W10       29.95R HX  84
IOWA CITY      MOSUNNY   81  70  69 W8        29.96R HX  84
MT. PLEASANT * SUNNY     85  70  60 W9        29.98S HX  90
MUSCATINE *    MOSUNNY   82  70  65 W14       29.97R HX  86
QUAD CITIES    MOSUNNY   81  70  69 W15G23    29.95R HX  84
$$

IAZ062-063-075>077-085>089-095>099-241800-
   SOUTHEAST IOWA

CITY           SKY/WX    TMP DP  RH WIND       PRES   REMARKS
BURLINGTON     SUNNY     81  70  69 SW13      29.98R HX  84
FAIRFIELD *    SUNNY     84  68  58 SW9       29.98S HX  87
FORT MADISON * SUNNY     82  72  69 SW7       30.00S HX  87
KEOKUK *       SUNNY     82  72  69 W9        29.99S HX  87
OSKALOOSA *      N/A     78  69  72 SW12      29.99R HX  80
CENTERVILLE *    N/A     82  72  69 SW14      30.01F HX  87
OTTUMWA        SUNNY     81  67  62 W9        29.97R HX  83
WASHINGTON *   SUNNY     81  70  69 W12G20    29.98S HX  84
$$

ABBREVIATIONS USED IN REMARKS
   TC - TEMPERATURES IN CELSIUS
  WCI - WIND CHILL INDEX
   HX - HEAT INDEX
  VSB - VISIBILITY
$$





USA.gov is the U.S. government's official web portal to all federal, state and local government web resources and services.